Погода в Чапаеве

Казахстан     50°11′26″N   51°10′14″E
темп.,
°C
ветер,
м/с
пор.,
м/с
влажн.,
%
обл.,
%
осадки,
мм/ч
давл.,
гПа
погр.,
м
1 августа, вс
вс123:00+29сз34335 0.0 101143
02:00+26с37445 0.0 1012111
05:00+24ссв23520 0.0 101222
08:00+27св23438 0.0 1012118
11:00+34ююв22265 0.0 10131260
14:00+37юз331430 0.0 10123823
17:00+37юз231321 0.0 10113968
20:00+36юз2214100 0.0 101156
2 августа, пн
пн223:00+31з3317100 0.0 101116
02:00+28св453131 0.0 101160
05:00+26всв222945 0.0 101212
08:00+30св222120 0.0 101370
11:00+36в11145 0.0 10131005
14:00+39вюв13125 0.0 10124363
17:00+40ююв231070 0.0 10104602
20:00+38ю791552 0.0 10101081
3 августа, вт
вт323:00+34ююз351999 0.0 101170
02:00+31сз112428 0.0 101112
05:00+29юв232415 0.0 101120
08:00+32ююз232325 0.0 1012104
11:00+38ююз341542 0.0 10121374
14:00+40юз441173 0.0 10114415
17:00+38зюз1091490 0.0 10101125
20:00+38ссв341425 0.0 1009190
4 августа, ср
ср423:00+32вюв442117 0.0 101039
02:00+32юв481911 0.0 1010136
05:00+29ююз342398 0.0 101039
08:00+31ю3722100 0.0 1010214
11:00+38ююз45156 0.0 1010925
14:00+41ююз561099 0.0 10084932
17:00+41юз561062 0.0 10074619
20:00+38вюв221383 0.0 100757
5 августа, чт
чт523:00+32ссз7132788 0.0 1008359
02:00+28ссз71235100 0.0 1009349
05:00+26ссз7124238 0.0 1009419
08:00+26с71146100 0.0 1010385
11:00+30ссз773698 0.0 1010923
14:00+33сз6632100 0.0 10111917
17:00+31сз9830100 0.0 10101778
20:00+29ссз66310 0.0 10111677